Regional Weather Roundup
Issued by NWS Goodland, KS

Home | Current Version | Previous Version | Text Only | Print | Product List | Glossary Off
Versions: 1 2 3 4 5 6 7 8 9 10 11 12 13 14 15 16 17 18 19 20 21 22 23 24 25 26 27 28 29 30 31 32 33 34 35 36 37 38 39 40 41 42 43 44 45 46 47 48 49 50

198
ASUS43 KGLD 241459
RWRGLD

GOODLAND FORECAST AREA HOURLY WEATHER ROUNDUP
NATIONAL WEATHER SERVICE GOODLAND KS
900 AM MDT SUN JUL 24 2016

...OFFICIAL OBSERVATIONS...

CITY           SKY/WX    TMP DP  RH WIND       PRES   REMARKS
GOODLAND KS    SUNNY     78  61  55 E14       30.09R
HILL CITY KS   CLOUDY    74  66  76 E9        30.01R
IMPERIAL NEB   SUNNY     76  55  48 NE8       30.14R
MCCOOK NEB     MOSUNNY   78  61  55 E14       30.06F
AKRON CO       CLOUDY    74  60  61 E13       30.19R
BURLINGTON CO  SUNNY     77  63  61 N8        30.15R
LIMON CO       SUNNY     76  53  44 SE8       30.22R
$$

...UNOFFICIAL OBSERVATIONS...

CITY           SKY/WX    TMP DP  RH WIND       PRES   REMARKS
COLBY KS       SUNNY     77  64  65 E14       30.08R
LENORA KS        N/A     73  32  22 MISG        N/A
NORTON KS      SUNNY     75  57  53 NE18      30.01F
YUMA CO          N/A     74  59  58 E5          N/A
$$




USA.gov is the U.S. government's official web portal to all federal, state and local government web resources and services.